Terminal Aerodrome Forecast
Issued by NWS

Home | Current Version | Previous Version | Text Only | Print | Product List | Glossary On
Versions: 1 2 3 4 5 6 7 8 9 10 11 12 13
000
FTAK31 PAJN 212300
TAFAGY
TAF
PAGY 212330Z 2200/2224 VRB05KT P6SM VCSH OVC025
     FM220400 VRB05KT P6SM VCSH OVC040
     FM221800 VRB05KT P6SM -SHRA OVC040
      AMD LTD TO CLD VIS AND WIND=

USA.gov is the U.S. government's official web portal to all federal, state and local government web resources and services.